This is the latest recevied weather packets stored in our database for station/object F8KHU-13. If no packets are shown the sender has not sent any weather packets the latest 10 day(s).
| Time | Temp. | Humidity | Pressure | Rain* | Wind** | Luminosity | Snow |
|---|---|---|---|---|---|---|---|
| 1777896637 | 20.56° C | 27% | 1015.2 hPa | 0 mm | - | 0 W/m² | - |
| 1777896617 | 20.56° C | 27% | 1015.2 hPa | 0 mm | - | 0 W/m² | - |
| 1777896597 | 20.56° C | 27% | 1015.2 hPa | 0 mm | - | 0 W/m² | - |
| 1777895737 | 22.78° C | 26% | 1015.3 hPa | 0 mm | - | 0 W/m² | - |
| 1777895717 | 22.78° C | 26% | 1015.3 hPa | 0 mm | - | 0 W/m² | - |
| 1777895697 | 22.78° C | 26% | 1015.3 hPa | 0 mm | - | 0 W/m² | - |
| 1777894817 | 22.78° C | 26% | 1015.4 hPa | 0 mm | - | 0 W/m² | - |
| 1777894797 | 22.78° C | 26% | 1015.3 hPa | 0 mm | - | 0 W/m² | - |
| 1777893918 | 21.67° C | 27% | 1015.4 hPa | 0 mm | - | 0 W/m² | - |
| 1777893897 | 21.67° C | 27% | 1015.4 hPa | 0 mm | - | 0 W/m² | - |
| 1777893038 | 20.56° C | 27% | 1015.6 hPa | 0 mm | - | 0 W/m² | - |
| 1777893018 | 20° C | 28% | 1015.6 hPa | 0 mm | - | 0 W/m² | - |
| 1777892997 | 20° C | 28% | 1015.6 hPa | 0 mm | - | 0 W/m² | - |
| 1777892138 | 18.33° C | 28% | 1015.7 hPa | 0 mm | - | 0 W/m² | - |
| 1777892118 | 18.33° C | 28% | 1015.7 hPa | 0 mm | - | 0 W/m² | - |
| 1777892098 | 18.33° C | 28% | 1015.7 hPa | 0 mm | - | 0 W/m² | - |
| 1777891238 | 18.33° C | 28% | 1015.8 hPa | 0 mm | - | 0 W/m² | - |
| 1777891218 | 18.33° C | 28% | 1015.7 hPa | 0 mm | - | 0 W/m² | - |
| 1777891198 | 18.33° C | 28% | 1015.7 hPa | 0 mm | - | 0 W/m² | - |
| 1777890338 | 18.89° C | 28% | 1015.7 hPa | 0 mm | - | 0 W/m² | - |
| 1777890318 | 18.89° C | 28% | 1015.8 hPa | 0 mm | - | 0 W/m² | - |
| 1777890298 | 18.89° C | 28% | 1015.7 hPa | 0 mm | - | 0 W/m² | - |
| 1777889438 | 19.44° C | 28% | 1015.8 hPa | 0 mm | - | 0 W/m² | - |
| 1777889418 | 19.44° C | 28% | 1015.8 hPa | 0 mm | - | 0 W/m² | - |
| 1777889398 | 19.44° C | 28% | 1015.8 hPa | 0 mm | - | 0 W/m² | - |
* Rain latest hour (hover to see other rain measurements)
** Current wind speed in m/s (hover to see current wind gust speed)